Volver al catálogo

TITAN 3C TRANSTAGE DEB

ActivoLEO
NORAD 1682·DEBRIS·🇺🇸 United States

Lanzado Oct 15, 1965 desde Cape Canaveral Space Force Station

Loading…

Próximos Pases (próximas 24 horas)

TLE

ActualizadoSource: Space-Track

Época: Sep 14, 2026, 00:16 UTC

1 01682U 65082AV  26257.01157124  .00001178  00000-0  16441-3 0  9997
2 01682  32.4112 183.9579 0047507 232.9318 126.6986 14.74736201203609

Sigue TITAN 3C TRANSTAGE DEB en tiempo real con AllMySat

Download on the App Store